KGYR

Details ICAO KGYR
Name Phoenix Goodyear
Region United States
Timezone America/Phoenix (UTC-7.0)
Plans Departing 53
Arriving 25
Stats Elevation 968 ft / 295 m (AMSL)
Location 33.423725° -112.374458°
Runways 1
Magnetic Variation 10.376° E
Sunrise 2018-06-21 12:21:30 UTC / 2018-06-21 05:21:30 Local
Sunset 2018-06-22 02:43:38 UTC / 2018-06-21 19:43:38 Local
Advertisement - Login to hide

Runways

ID Width Length Bearing (true) Bearing (mag) Surface Threshold Offset Overrun Length
03 151 ft / 46 m 8,509 ft / 2,594 m 39.46° 29.08° Asphalt 0 ft / 0 m 200 ft / 61 m
21 151 ft / 46 m 8,509 ft / 2,594 m 219.46° 209.08° Asphalt 2,100 ft / 640 m 0 ft / 0 m

Map

Weather


0- 5 10 15 20 25 30 35+ Temperature / ° C

Clouds and Precipitation
Forecast for 2018-06-21 18:00 UTC. Updated 6 hours ago

Ground ~20,000 ft ~40,000 ft Winds

METAR

KGYR 212047Z 24010G17KT 10SM SKC 41/03 A2982

TAF

Not found

Frequencies

Recorded 118.35 MHz ATIS
Ground 121.70 MHz GND
Approach 125.45 MHz LUKE APP/DEP
Unicom 122.95 MHz UNICOM
Tower 120.10 MHz GOODYEAR TWR
Warning: Do not use this data for real-world aviation or navigation. No guarantee of current accuracy is given.